Temp
20 19 19 20 19 20 19 19 19 19 19 20 20 19 20 19 18 19 19 19 19 19 20 19 19 20 21 21 21 21 21 21 21 22 22 22 22 22 22 22 22 22 22
20 20 20 20 20 20 20 19 20 19 19 19 19 19 19 19 19 19 19 19 19 19 19 19 19 19 19 19 20 20 21 21 20 21 20 21 22 22 22 22 22 22 23
21 20 20 20 20 20 20 20 19 19 19 19 19 19 19 19 19 19 20 20 19 19 19 19 19 19 19 19 19 20 20 20 20 20 20 21 22 21 22 21 22 22 22
19 20 20 19 20 20 20 20 19 19 19 19 18 19 19 19 19 19 19 19 19 19 19 20 19 20 19 19 19 19 19 19 20 20 20 21 21 20 20 20 21 21 21
18 19 20 19 19 19 19 19 19 19 18 18 18 18 18 18 19 19 19 19 19 19 19 19 19 19 19 19 19 19 19 19 19 19 20 20 20 21 20 20 21 21 21
19 20 20 20 19 19 18 19 18 19 18 18 18 18 18 18 19 19 19 19 19 18 19 19 18 18 19 19 20 20 19 19 19 19 19 18 19 19 19 19 19 20 19
19 19 19 18 17 18 18 18 18 18 18 18 17 18 19 19 20 20 19 19 19 19 19 19 18 18 19 19 19 19 19 18 18 18 18 18 18 18 19 18 19 18 18
16 18 18 17 16 17 17 17 17 17 17 17 17 19 19 19 19 19 19 19 18 18 18 18 18 19 19 19 18 18 18 17 17 17 17 17 18 18 18 18 17 17 18
17 17 17 17 16 16 16 17 16 16 16 16 16 18 18 18 19 19 18 17 18 18 19 19 19 19 19 18 18 18 18 18 18 18 18 18 18 17 17 17 17 17 17
16 16 15 16 16 16 15 15 15 15 16 15 16 17 17 16 17 18 17 17 16 16 16 17 17 17 17 17 17 17 17 18 18 17 18 18 18 16 16 16 16 16 16
16 16 15 15 15 15 15 14 14 14 15 15 16 16 16 16 16 16 16 16 16 15 14 16 15 16 16 16 17 17 17 17 17 17 17 17 17 16 15 16 15 15 15
15 15 15 14 14 14 14 14 14 14 14 14 14 14 15 15 14 15 15 15 15 15 15 15 15 15 15 16 16 16 16 15 15 16 16 16 16 16 15 14 14 14 15
13 13 12 12 13 13 13 13 13 13 14 13 13 14 14 14 13 14 14 14 15 15 15 15 15 14 14 14 13 14 14 15 14 14 14 14 14 13 13 14 14 14 15
11 11 11 11 12 11 12 12 12 12 12 12 13 12 12 13 14 14 14 14 14 14 14 14 14 14 14 14 13 13 14 13 14 14 13 13 13 13 13 13 13 13 13
10 11 11 10 11 11 12 12 12 12 13 13 13 13 12 11 13 13 13 14 14 14 13 13 13 13 12 12 12 12 13 13 13 13 13 13 13 13 13 12 12 12 12
10 10 11 11 11 11 11 12 12 12 13 13 13 13 12 12 12 12 13 13 13 13 12 10 10 10 9 10 11 10 11 12 11 10 10 11 10 11 10 10 10 10 10
10 10 11 11 11 11 10 10 11 11 12 11 12 12 12 12 12 12 12 12 12 11 10 10 10 9 9 9 8 8 7 8 9 8 8 8 8 8 8 9 8 9 9
11 11 11 10 11 11 11 10 10 10 10 11 10 10 10 11 11 11 11 11 10 10 10 9 9 8 7 7 7 7 6 7 7 6 6 7 7 8 8 8 7 7 7
10 9 10 10 10 10 10 10 11 11 11 10 9 9 9 10 10 10 9 10 10 10 9 8 8 7 6 6 7 7 6 6 6 5 5 5 6 7 6 6 5 5 4
9 10 9 9 9 9 9 10 10 10 10 10 9 9 8 9 9 8 8 8 9 8 8 7 6 6 6 6 6 6 4 4 4 5 6 6 6 5 5 4 4 3 3
9 9 9 9 9 9 8 8 8 9 9 9 9 8 8 8 8 8 7 7 7 7 6 6 5 5 4 5 5 4 4 3 4 5 5 5 5 4 4 3 3 3 3
9 9 10 9 8 7 7 7 7 8 9 9 8 8 8 7 8 7 7 6 6 5 5 5 4 4 4 5 5 5 3 2 4 5 5 5 4 4 4 3 3 3 2
8 8 7 8 8 7 6 7 7 7 7 8 7 7 7 7 7 7 6 6 5 4 4 4 4 4 3 4 4 4 4 4 4 4 4 3 3 3 3 3 2 1 -0
9 9 8 8 7 7 7 7 7 7 7 8 8 7 7 7 7 6 6 5 5 4 4 3 3 3 3 3 2 1 2 3 3 3 3 3 2 2 2 1 -0 -2 -1
8 8 9 9 8 8 7 7 7 7 7 7 7 7 7 7 6 6 6 5 4 4 4 3 3 2 2 2 2 3 3 2 2 2 2 1 1 1 1 -2 -2 -1 -1
8 8 8 8 8 8 8 7 7 7 8 8 7 7 7 6 6 6 5 5 4 4 4 3 3 3 2 3 2 2 2 2 1 1 1 1 1 1 0 -1 -2 -1 -1
Height
1568 1569 1572 1575 1577 1580 1583 1586 1588 1590 1589 1588 1589 1594 1597 1599 1600 1599 1600 1600 1599 1599 1601 1603 1605 1604 1603 1602 1601 1600 1598 1597 1597 1597 1596 1594 1591 1591 1589 1588 1586 1583 1583
1566 1571 1573 1575 1577 1577 1579 1582 1584 1584 1586 1588 1591 1594 1595 1597 1598 1598 1599 1598 1598 1598 1598 1600 1600 1603 1603 1602 1601 1600 1600 1599 1598 1596 1594 1592 1590 1590 1587 1586 1586 1586 1584
1566 1569 1574 1576 1577 1578 1577 1579 1582 1584 1585 1587 1590 1593 1596 1597 1597 1597 1596 1597 1597 1598 1598 1599 1599 1599 1600 1601 1601 1601 1601 1599 1598 1597 1594 1593 1590 1588 1589 1586 1585 1585 1584
1557 1566 1570 1572 1575 1576 1578 1579 1581 1583 1585 1588 1590 1592 1593 1595 1597 1596 1596 1595 1596 1597 1599 1599 1598 1599 1599 1598 1599 1599 1599 1598 1597 1596 1594 1592 1589 1588 1586 1590 1582 1582 1582
1560 1562 1565 1566 1568 1571 1573 1576 1579 1582 1583 1584 1586 1587 1589 1591 1593 1594 1593 1594 1595 1596 1597 1598 1598 1597 1598 1598 1598 1597 1596 1596 1595 1594 1592 1590 1588 1584 1583 1582 1582 1581 1580
1555 1558 1560 1560 1563 1566 1568 1570 1574 1577 1580 1582 1584 1585 1587 1587 1589 1590 1591 1591 1593 1593 1595 1596 1596 1595 1595 1596 1595 1595 1595 1594 1594 1593 1591 1590 1589 1586 1584 1584 1582 1579 1575
1551 1554 1556 1557 1560 1561 1565 1567 1571 1573 1577 1579 1581 1581 1583 1584 1586 1587 1588 1589 1590 1591 1592 1593 1594 1592 1593 1593 1594 1594 1593 1593 1592 1591 1590 1589 1587 1585 1583 1582 1581 1579 1577
1547 1548 1552 1553 1556 1557 1559 1563 1568 1570 1573 1575 1576 1577 1580 1582 1583 1584 1584 1585 1586 1588 1588 1589 1588 1589 1591 1592 1592 1591 1591 1591 1589 1589 1588 1587 1585 1584 1582 1580 1579 1577 1577
1543 1546 1548 1550 1551 1554 1557 1560 1565 1568 1570 1572 1574 1578 1579 1579 1580 1581 1581 1582 1582 1582 1584 1586 1586 1588 1588 1588 1588 1589 1588 1588 1588 1586 1586 1585 1585 1584 1581 1580 1577 1576 1574
1541 1544 1546 1548 1550 1554 1557 1560 1562 1565 1568 1570 1574 1575 1576 1577 1579 1579 1580 1581 1581 1581 1582 1583 1584 1585 1586 1586 1586 1586 1587 1587 1586 1586 1585 1584 1582 1582 1580 1578 1576 1575 1573
1538 1543 1545 1548 1550 1553 1557 1559 1561 1562 1566 1569 1571 1572 1574 1575 1576 1578 1579 1580 1580 1580 1581 1580 1582 1583 1584 1584 1584 1584 1584 1584 1585 1584 1584 1583 1579 1578 1578 1578 1576 1573 1572
1537 1541 1543 1548 1550 1552 1555 1558 1560 1562 1564 1567 1569 1570 1572 1574 1575 1576 1577 1578 1578 1579 1580 1580 1581 1582 1582 1582 1583 1582 1581 1580 1581 1581 1580 1577 1576 1576 1576 1575 1573 1572 1571
1537 1539 1541 1546 1549 1553 1554 1557 1560 1560 1563 1565 1567 1568 1570 1572 1573 1574 1576 1577 1577 1578 1579 1579 1579 1579 1579 1578 1579 1577 1578 1577 1577 1576 1576 1575 1575 1576 1574 1571 1570 1569 1568
1541 1542 1544 1547 1548 1553 1553 1557 1559 1559 1562 1565 1567 1568 1568 1570 1572 1574 1575 1575 1576 1576 1576 1576 1577 1577 1577 1576 1574 1573 1574 1576 1574 1574 1573 1572 1572 1572 1569 1568 1567 1564 1562
1547 1548 1549 1551 1553 1554 1555 1558 1558 1561 1563 1564 1564 1566 1568 1569 1571 1571 1573 1574 1574 1573 1573 1574 1574 1574 1574 1574 1574 1573 1573 1573 1574 1574 1572 1570 1569 1568 1568 1565 1562 1561 1558
1549 1551 1551 1551 1551 1554 1556 1557 1559 1561 1562 1564 1564 1565 1566 1568 1568 1568 1570 1570 1570 1570 1571 1573 1572 1573 1573 1573 1573 1572 1570 1571 1571 1571 1569 1567 1566 1565 1564 1562 1559 1557 1555
1549 1551 1551 1554 1554 1555 1556 1557 1559 1560 1561 1562 1562 1562 1563 1565 1563 1564 1565 1566 1569 1568 1569 1572 1572 1573 1573 1572 1574 1574 1573 1569 1569 1568 1568 1566 1566 1564 1562 1558 1557 1555 1552
1549 1550 1550 1552 1554 1557 1557 1559 1561 1561 1559 1558 1560 1561 1561 1560 1559 1561 1563 1565 1568 1567 1569 1569 1570 1572 1571 1570 1571 1571 1570 1568 1568 1568 1567 1565 1563 1561 1558 1556 1554 1552 1549
1547 1549 1552 1551 1552 1554 1556 1559 1561 1562 1562 1557 1558 1559 1559 1559 1560 1560 1562 1565 1564 1565 1567 1568 1569 1568 1567 1567 1567 1568 1567 1566 1566 1566 1564 1564 1562 1559 1557 1554 1552 1549 1547
1546 1548 1552 1551 1550 1551 1555 1556 1556 1557 1561 1559 1557 1557 1560 1559 1561 1562 1561 1562 1563 1560 1564 1565 1565 1565 1564 1565 1565 1565 1565 1564 1564 1562 1561 1561 1560 1557 1554 1552 1548 1546 1543
1545 1547 1546 1548 1548 1549 1551 1553 1554 1553 1556 1557 1557 1559 1558 1560 1562 1563 1559 1559 1561 1560 1561 1562 1561 1563 1564 1562 1562 1563 1562 1561 1560 1558 1557 1556 1556 1554 1553 1550 1546 1543 1540
1544 1545 1543 1545 1545 1546 1547 1550 1552 1553 1553 1558 1553 1557 1556 1559 1560 1559 1556 1556 1559 1560 1558 1558 1559 1560 1561 1559 1559 1559 1559 1558 1558 1557 1555 1553 1552 1548 1547 1549 1544 1541 1538
1541 1543 1543 1542 1543 1544 1546 1547 1548 1550 1550 1552 1552 1552 1553 1553 1555 1555 1555 1555 1556 1557 1556 1557 1557 1558 1557 1557 1557 1557 1557 1555 1556 1555 1553 1550 1547 1546 1544 1544 1541 1536 1535
1540 1541 1540 1540 1541 1544 1543 1544 1544 1545 1547 1548 1549 1548 1548 1549 1552 1552 1551 1552 1553 1553 1554 1554 1555 1553 1553 1555 1555 1554 1553 1553 1552 1551 1550 1547 1544 1543 1543 1540 1537 1534 1532
1535 1537 1537 1537 1539 1538 1539 1540 1540 1541 1542 1543 1545 1546 1546 1547 1548 1549 1549 1549 1550 1551 1552 1551 1552 1552 1550 1551 1551 1551 1552 1550 1549 1548 1545 1544 1541 1539 1537 1535 1533 1532 1532
1528 1530 1531 1532 1533 1533 1534 1534 1536 1538 1538 1539 1538 1542 1543 1543 1544 1546 1546 1547 1547 1547 1549 1550 1550 1549 1548 1549 1547 1547 1548 1548 1546 1544 1541 1540 1537 1535 1533 1532 1530 1528 1525
Wind_Speed
23 20 16 11 8 11 10 5 3 6 3 3 8 10 9 8 7 10 10 6 6 4 11 8 8 12 10 13 11 10 11 14 16 15 17 12 11 13 15 21 20 18 16
19 22 19 14 15 11 9 6 5 6 6 6 5 9 8 8 9 8 7 7 8 7 8 8 9 5 8 6 5 7 9 10 13 13 13 15 10 17 16 17 18 15 18
23 23 22 18 16 15 13 8 12 10 9 6 7 8 8 7 7 10 6 9 5 6 6 8 8 8 11 7 10 12 9 11 11 11 16 16 15 17 13 11 8 16 14
28 27 26 21 17 15 15 13 11 13 14 12 12 9 6 6 7 9 9 7 11 6 6 8 10 8 12 10 9 12 9 14 10 10 15 13 18 17 12 14 10 12 18
32 28 22 18 19 18 17 17 16 14 13 11 12 10 11 10 14 14 12 11 9 8 10 8 9 13 12 13 15 16 14 13 12 14 15 14 16 23 23 21 18 20 20
26 23 21 22 29 20 22 21 21 18 14 12 12 10 13 14 15 14 14 13 11 9 11 11 10 11 13 11 9 9 10 13 14 15 16 16 18 21 21 19 21 23 28
31 25 22 17 24 21 22 18 18 18 20 15 14 17 18 15 14 14 16 16 17 16 12 12 11 13 13 12 11 12 9 9 12 15 17 18 19 17 23 25 22 18 17
18 18 14 16 16 18 18 15 15 15 16 16 18 15 13 13 14 16 16 15 17 17 15 12 15 16 14 14 13 8 9 8 9 12 15 18 18 14 11 11 11 14 14
16 13 11 10 13 18 20 19 18 16 17 17 15 14 10 8 8 10 7 7 13 17 17 15 16 15 14 11 9 9 8 8 8 10 7 7 10 10 10 10 9 11 15
14 14 12 11 10 7 8 10 16 16 16 18 14 14 9 11 11 9 9 11 5 5 3 7 9 9 7 7 8 6 6 6 6 3 7 11 6 8 6 5 9 11 12
17 18 15 12 12 11 13 10 13 15 16 15 14 14 14 16 12 11 10 10 10 6 4 8 3 3 3 5 6 7 8 7 3 3 7 6 2 1 8 11 10 11 13
19 18 16 13 9 12 13 12 12 12 15 14 13 13 11 10 9 10 11 13 13 14 14 10 8 5 6 8 8 8 6 6 5 4 6 5 7 9 9 10 6 10 4
17 17 15 13 11 10 12 11 9 10 11 9 9 8 7 8 7 8 8 8 9 10 9 9 9 8 8 7 4 3 6 8 7 6 5 6 6 3 6 12 11 9 2
10 12 13 16 11 13 11 11 12 13 10 5 4 3 6 7 7 6 7 7 9 9 10 11 12 12 11 9 9 9 10 9 7 4 4 4 4 5 8 9 12 12 12
7 7 9 11 8 11 10 10 11 9 12 13 13 13 10 8 8 8 10 12 13 12 10 10 9 8 8 10 11 9 7 5 5 4 4 6 7 8 9 8 9 10 10
12 10 8 6 4 2 9 12 10 12 15 15 15 16 12 15 14 15 14 12 10 7 4 2 4 3 3 2 2 2 5 2 3 5 6 7 8 9 11 11 12 13 14
10 7 11 7 3 5 5 5 5 12 14 19 20 20 19 17 15 12 8 6 5 9 8 6 3 3 4 5 3 1 2 6 4 6 7 8 9 8 9 12 13 15 19
3 5 9 8 9 3 2 3 5 9 4 8 11 12 11 9 8 7 6 7 11 9 7 6 5 5 5 5 5 3 0 4 3 3 5 7 9 11 11 13 15 18 21
6 5 8 4 10 9 8 8 6 7 6 11 9 6 6 5 6 8 11 10 9 7 5 7 6 5 6 5 4 2 1 4 5 4 6 8 11 12 13 14 15 16 17
5 8 10 11 7 9 8 11 8 8 7 10 7 7 5 4 5 8 10 10 8 8 8 8 8 8 6 5 3 2 2 1 3 5 8 11 13 14 14 15 16 18 19
7 9 9 12 13 11 7 8 9 9 11 12 11 11 8 5 5 8 4 7 6 8 11 10 8 5 3 4 2 1 1 1 6 7 10 13 14 15 16 16 18 19 21
9 9 8 11 13 14 15 13 12 13 12 12 13 15 15 15 10 7 9 7 11 9 9 9 7 6 7 5 2 1 1 4 8 10 12 13 14 14 16 18 18 18 19
10 10 10 8 11 13 12 15 13 14 13 13 14 15 11 14 12 8 10 10 11 7 8 6 6 4 7 5 5 4 5 8 9 13 13 13 14 15 15 15 17 18 22
14 17 14 13 12 11 13 13 14 15 15 14 13 12 7 6 10 13 13 11 11 10 9 7 7 8 8 5 5 3 8 10 12 13 14 14 13 13 14 14 16 18 19
19 17 18 17 17 16 16 17 15 15 17 18 14 16 17 18 15 15 16 15 11 11 10 9 7 6 8 7 8 11 8 11 13 13 14 15 15 14 14 14 15 18 20
19 20 20 17 18 18 19 18 18 18 19 19 18 18 18 16 15 15 14 12 13 11 10 10 9 11 11 12 11 7 12 16 15 15 16 16 17 15 15 16 16 19 20
Wind_Direction
193 200 201 204 192 207 218 206 203 182 294 193 170 201 208 227 241 244 238 260 237 311 234 275 290 302 280 269 287 326 318 328 327 301 334 351 350 348 333 357 6 12 352
192 201 197 193 188 205 199 215 218 248 237 222 209 213 218 211 227 260 239 209 254 266 287 293 279 282 297 318 313 319 316 311 318 328 328 334 335 341 327 324 352 349 359
192 198 199 196 193 192 219 199 206 230 241 220 231 226 224 225 245 288 229 206 210 258 276 286 300 291 284 263 285 282 283 290 303 325 322 334 328 328 350 346 342 7 349
194 206 204 199 208 206 200 211 211 224 229 215 229 224 223 224 258 269 285 233 205 230 250 273 284 285 293 300 306 309 301 302 305 311 312 318 337 351 358 336 344 316 318
182 182 188 203 206 207 219 226 212 222 231 237 234 217 229 234 232 236 246 259 254 235 228 255 277 269 268 282 287 297 297 302 298 298 303 306 311 315 324 325 311 309 309
206 227 249 253 228 225 224 223 223 212 219 240 246 235 230 236 235 243 238 252 257 255 251 230 252 259 272 278 287 290 294 298 302 302 302 301 298 302 308 320 319 321 325
231 237 245 243 228 221 225 241 237 237 225 217 221 219 230 240 243 254 250 250 251 257 259 242 248 250 257 269 293 302 299 303 299 299 300 303 304 307 312 315 318 324 332
212 213 235 229 218 214 216 226 234 229 210 220 224 228 232 239 252 263 262 254 252 249 247 235 239 254 263 276 289 267 270 279 290 295 299 304 311 323 337 347 357 340 340
210 214 215 226 224 231 238 239 233 224 209 214 217 232 249 260 264 264 253 244 245 239 248 247 253 262 265 269 263 278 280 278 294 303 340 13 21 7 333 328 333 339 344
197 195 195 193 193 218 229 217 210 203 212 216 218 220 226 274 269 263 238 228 265 325 263 237 248 249 244 256 271 287 305 316 338 34 44 16 20 55 21 0 344 342 338
205 207 205 199 200 205 211 216 207 195 207 220 233 235 243 263 260 241 210 204 200 168 187 254 279 252 261 278 295 309 318 324 333 357 18 325 216 313 344 339 326 333 330
195 193 189 191 186 193 204 209 224 230 234 241 235 250 250 237 230 229 217 229 225 206 210 241 278 289 300 306 318 318 297 290 283 254 268 276 277 296 339 341 338 321 341
152 154 147 154 169 196 210 219 210 193 204 214 214 226 233 229 220 210 204 206 216 230 243 252 263 274 281 291 325 217 246 267 254 253 258 282 296 308 310 280 284 305 14
136 137 136 125 127 133 136 133 160 150 146 140 134 174 250 241 229 231 241 243 250 259 268 275 279 280 273 265 246 263 278 278 257 249 219 252 259 259 271 304 322 333 332
107 114 112 132 156 160 169 182 181 184 182 179 186 197 198 234 240 249 260 268 274 279 277 276 279 263 254 252 258 270 278 284 288 299 305 317 324 309 319 316 318 323 327
121 124 118 95 40 282 219 214 214 218 214 209 209 213 218 234 249 267 275 268 263 250 178 167 318 116 289 6 6 352 322 323 348 11 5 359 346 345 353 354 352 344 333
139 148 150 144 148 279 321 330 282 240 230 230 238 248 254 256 254 255 252 238 206 154 133 163 139 143 137 133 123 351 26 337 21 18 356 343 336 342 342 342 337 327 329
133 182 159 173 170 185 258 301 273 310 286 250 250 243 244 239 233 222 197 153 144 133 153 161 169 185 182 186 181 200 229 303 340 19 320 328 327 341 344 339 340 337 334
153 149 165 186 201 204 208 215 224 274 257 273 317 268 242 225 203 179 158 144 134 170 172 172 169 182 194 221 214 210 194 342 348 349 330 330 334 343 342 340 338 336 336
225 223 229 210 221 210 211 219 208 228 235 283 321 296 274 196 169 176 180 167 169 177 178 200 199 208 222 209 219 160 135 320 302 310 330 336 338 339 338 337 338 338 337
252 257 243 246 241 250 211 258 238 213 224 219 233 233 243 218 189 211 202 185 169 199 187 187 204 194 236 249 206 125 360 314 298 319 336 340 339 340 339 339 338 336 335
253 255 251 241 240 239 223 211 224 223 217 227 231 238 253 224 189 208 203 203 216 192 214 192 175 179 245 253 265 268 302 286 301 332 338 340 336 338 339 336 338 342 344
223 228 248 258 233 223 229 220 221 234 224 227 234 247 280 217 202 213 218 211 225 215 233 180 179 184 254 277 290 295 284 290 319 330 334 336 337 338 339 339 344 353 353
233 242 241 253 256 236 232 235 229 227 229 233 228 242 244 208 206 218 214 215 226 210 228 224 206 210 239 247 286 328 278 308 318 323 330 333 335 337 339 346 353 350 340
231 235 245 243 239 245 241 240 242 239 237 236 232 235 235 231 225 231 232 227 227 220 230 237 226 240 271 269 254 267 288 309 318 324 326 330 330 328 331 340 338 328 324
244 243 244 243 247 243 245 243 241 245 243 239 237 235 238 233 228 228 243 220 227 228 224 229 235 244 258 286 291 290 316 322 320 322 323 320 324 321 325 323 325 330 333